DW9231 Weather Reports


time (UTC)temp
C
wind
direction
speed
KPH
gust
KPH
rain 1hr
cm
rain 24hr
cm
rain mn
cm
humidity
%
barometer
mb
20260906234554 32 123 0.0 8.0 0.00 0.00 0.00 22 1016.1
20260906233056 32 221 1.6 12.9 0.00 0.00 0.00 22 1016.3
20260906231604 32 163 0.0 9.7 0.00 0.00 0.00 21 1016.3
20260906230055 32 179 0.0 12.9 0.00 0.00 0.00 22 1016.3
20260906224553 32 113 1.6 8.0 0.00 0.00 0.00 21 1016.3
20260906223049 33 155 0.0 8.0 0.00 0.00 0.00 21 1016.4
20260906221551 33 224 0.0 6.4 0.00 0.00 0.00 20 1016.5
20260906220046 32 167 1.6 6.4 0.00 0.00 0.00 20 1016.8
20260906214549 32 170 0.0 11.3 0.00 0.00 0.00 20 1017.0
20260906213041 32 231 0.0 9.7 0.00 0.00 0.00 20 1017.3
20260906211540 32 360 0.0 8.0 0.00 0.00 0.00 20 1017.5
20260906210046 32 75 0.0 9.7 0.00 0.00 0.00 20 1017.8
20260906204537 32 180 1.6 9.7 0.00 0.00 0.00 20 1018.0
20260906203034 32 104 0.0 9.7 0.00 0.00 0.00 21 1018.1
20260906201531 32 191 1.6 9.7 0.00 0.00 0.00 20 1018.5
20260906200032 32 200 1.6 8.0 0.00 0.00 0.00 21 1018.6
20260906194538 31 94 1.6 12.9 0.00 0.00 0.00 22 1018.7
20260906193026 31 245 0.0 4.8 0.00 0.00 0.00 22 1018.9
20260906191525 31 184 1.6 8.0 0.00 0.00 0.00 23 1019.0
20260906190027 31 162 0.0 3.2 0.00 0.00 0.00 25 1019.3
20260906184533 30 238 0.0 11.3 0.00 0.00 0.00 25 1019.5
20260906183027 28 108 0.0 4.8 0.00 0.00 0.00 27 1019.7
20260906181546 30 183 0.0 8.0 0.00 0.00 0.00 27 1020.0
20260906180117 30 165 0.0 9.7 0.00 0.00 0.00 26 1020.3
20260906174517 30 139 0.0 9.7 0.00 0.00 0.00 28 1020.5
20260906173011 28 93 0.0 4.8 0.00 0.00 0.00 28 1020.6
20260906171511 28 107 0.0 6.4 0.00 0.00 0.00 29 1020.7
20260906170018 28 60 0.0 3.2 0.00 0.00 0.00 29 1020.7
20260906164507 28 197 0.0 6.4 0.00 0.00 0.00 30 1020.8
20260906163005 27 281 0.0 0.0 0.00 0.00 0.00 32 1020.9
20260906161501 25 146 0.0 0.0 0.00 0.00 0.00 36 1020.8
20260906160058 25 160 0.0 0.0 0.00 0.00 0.00 36 1020.8
20260906154557 25 177 0.0 0.0 0.00 0.00 0.00 36 1020.7
20260906153055 24 177 0.0 0.0 0.00 0.00 0.00 37 1020.7
20260906151554 23 177 0.0 0.0 0.00 0.00 0.00 37 1020.6
20260906150053 23 96 0.0 3.2 0.00 0.00 0.00 38 1020.7
20260906144550 23 120 0.0 6.4 0.00 0.00 0.00 38 1020.4
20260906143050 23 113 0.0 3.2 0.00 0.00 0.00 36 1020.4
20260906141546 22 63 0.0 0.0 0.00 0.00 0.00 38 1020.3
20260906140057 21 84 0.0 0.0 0.00 0.00 0.00 39 1020.3
20260906134546 21 84 0.0 0.0 0.00 0.00 0.00 38 1020.1
20260906133041 21 35 1.6 6.4 0.00 0.00 0.00 35 1019.9
20260906131539 21 78 0.0 4.8 0.00 0.00 0.00 36 1019.9
20260906130041 21 15 1.6 9.7 0.00 0.00 0.00 36 1019.8
20260906124538 21 54 4.8 9.7 0.00 0.00 0.00 36 1019.6
20260906123036 21 32 3.2 11.3 0.00 0.00 0.00 36 1019.5
20260906121536 21 30 0.0 3.2 0.00 0.00 0.00 36 1019.5
20260906120034 21 37 0.0 3.2 0.00 0.00 0.00 36 1019.5
20260906114543 21 49 1.6 6.4 0.00 0.00 0.00 36 1019.6
20260906113032 21 335 0.0 0.0 0.00 0.00 0.00 37 1019.6
20260906111531 21 15 0.0 8.0 0.00 0.00 0.00 36 1019.5
20260906110030 21 1 0.0 0.0 0.00 0.00 0.00 39 1019.5
20260906104531 22 273 0.0 1.6 0.00 0.00 0.00 38 1019.6
20260906103030 22 283 0.0 0.0 0.00 0.00 0.00 40 1019.5
20260906101529 22 59 1.6 6.4 0.00 0.00 0.00 39 1019.6
20260906100031 22 270 0.0 0.0 0.00 0.00 0.00 36 1019.6
20260906094525 22 334 0.0 0.0 0.00 0.00 0.00 36 1019.3
20260906093025 22 268 0.0 0.0 0.00 0.00 0.00 36 1019.2
20260906091531 22 359 0.0 0.0 0.00 0.00 0.00 35 1019.1
20260906090024 23 48 0.0 1.6 0.00 0.00 0.00 35 1018.9
20260906084530 22 360 0.0 0.0 0.00 0.00 0.00 36 1019.0
20260906083023 22 1 0.0 0.0 0.00 0.00 0.00 36 1019.2
20260906081528 22 15 0.0 3.2 0.00 0.00 0.00 36 1019.4
20260906080020 22 39 3.2 11.3 0.00 0.00 0.00 36 1019.6
20260906074521 22 64 6.4 12.9 0.00 0.00 0.00 36 1019.6
20260906073022 22 26 6.4 11.3 0.00 0.00 0.00 36 1019.7
20260906071518 22 25 4.8 11.3 0.00 0.00 0.00 36 1019.7
20260906070017 22 38 3.2 12.9 0.00 0.00 0.00 35 1019.7
20260906064523 23 57 4.8 11.3 0.00 0.00 0.00 35 1019.8
20260906063013 23 36 1.6 8.0 0.00 0.00 0.00 35 1019.8
20260906061511 23 24 0.0 8.0 0.00 0.00 0.00 34 1019.7
20260906060007 23 65 3.2 11.3 0.00 0.00 0.00 34 1019.5
20260906054505 24 41 3.2 12.9 0.00 0.00 0.00 33 1019.4
20260906053005 24 35 0.0 3.2 0.00 0.00 0.00 33 1019.4
20260906051505 25 315 0.0 0.0 0.00 0.00 0.00 32 1019.3
20260906050012 25 310 0.0 3.2 0.00 0.00 0.00 31 1019.3
20260906044506 25 309 0.0 4.8 0.00 0.00 0.00 31 1019.3
20260906043009 25 2 0.0 3.2 0.00 0.00 0.00 32 1019.3
20260906041504 25 299 0.0 3.2 0.00 0.00 0.00 33 1019.4
20260906040008 25 6 0.0 0.0 0.00 0.00 0.00 33 1019.5
20260906034503 26 19 0.0 1.6 0.00 0.00 0.00 32 1019.5
20260906033003 26 296 0.0 3.2 0.00 0.00 0.00 33 1019.4
20260906031503 25 352 0.0 0.0 0.00 0.00 0.00 33 1019.1
20260906030004 26 297 0.0 0.0 0.00 0.00 0.00 33 1018.9
20260906024501 26 352 0.0 0.0 0.00 0.00 0.00 33 1018.6
20260906023002 26 333 0.0 3.2 0.00 0.00 0.00 33 1018.5
20260906021502 26 333 0.0 0.0 0.00 0.00 0.00 33 1018.3
20260906020003 27 300 0.0 0.0 0.00 0.00 0.00 33 1018.2
20260906014600 27 266 0.0 0.0 0.00 0.00 0.00 32 1018.2
20260906013059 28 236 0.0 1.6 0.00 0.00 0.00 31 1018.1
20260906011607 28 217 0.0 1.6 0.00 0.00 0.00 31 1018.1
20260906004600 29 278 0.0 4.8 0.00 0.00 0.00 30 1018.1
20260906003057 29 206 0.0 6.4 0.00 0.00 0.00 29 1018.2
20260906001556 30 200 0.0 8.0 0.00 0.00 0.00 29 1018.1
20260906000105 30 226 0.0 8.0 0.00 0.00 0.00 28 1018.1